Regional Weather Roundup
Issued by NWS

Home | Current Version | Previous Version | Text Only | Print | Product List | Glossary Off
Versions: 1 2 3 4 5 6 7 8 9 10 11 12 13 14 15 16 17 18 19 20 21 22 23 24 25 26 27 28 29 30 31 32 33 34 35 36 37 38 39 40 41 42 43 44 45 46 47 48 49 50

000
ASUS43 KMKX 220000
RWRWI

WISCONSIN REGIONAL WEATHER ROUNDUP
NATIONAL WEATHER SERVICE MILWAUKEE/SULLIVAN WI
700 PM CDT THU AUG 21 2014

NOTE: "FAIR" INDICATES FEW OR NO CLOUDS BELOW 12,000 FEET WITH NO
SIGNIFICANT WEATHER AND/OR OBSTRUCTIONS TO VISIBILITY.

WIZ001-002-006>008-014>016-023>028-220100-
NORTHWEST WISCONSIN

CITY           SKY/WX    TMP DP  RH WIND       PRES   REMARKS
SUPERIOR ARPT  CLOUDY    61  60  97 NE9G17    29.90S
ASHLAND        CLOUDY    66  62  87 N7        29.89F
6HR MIN TEMP:  65; 6HR MAX TEMP:  70; 6HR PCP: TRACE;

HAYWARD        CLOUDY    72  69  90 SE6       29.88S
6HR MIN TEMP:  72; 6HR MAX TEMP:  76;

SIREN          LGT RAIN  73  70  89 SE6       29.85F
RICE LAKE      LGT RAIN  72  69  91 E3        29.88R
6HR MIN TEMP:  72; 6HR MAX TEMP:  76; 6HR PCP:  0.03;

LADYSMITH      CLOUDY    72  68  86 E7        29.91R
EAU CLAIRE     NOT AVBL
MENOMONIE      PTCLDY    78  71  79 SE9       29.84R HX  80
6HR MIN TEMP:  76; 6HR MAX TEMP:  78;

NEW RICHMOND   MOSUNNY   74  72  92 E6        29.83S
OSCEOLA        CLOUDY    75  73  95 E6        29.84F
$$

WIZ003>005-009-010-017-018-220100-
NORTH CENTRAL WISCONSIN

CITY           SKY/WX    TMP DP  RH WIND       PRES   REMARKS
WOODRUFF       CLOUDY    72  67  84 SE8       29.94F
RHINELANDER    CLOUDY    67  63  87 E8        29.95F
6HR MIN TEMP:  66; 6HR MAX TEMP:  69; 6HR PCP: TRACE;

EAGLE RIVER    CLOUDY    67  64  91 SE9       29.96R
LAND O LAKES   CLOUDY    68  64  85 SE8       29.96S
PHILLIPS       CLOUDY    67  65  91 SE7       29.92S
6HR MIN TEMP:  66; 6HR MAX TEMP:  72;

TOMAHAWK       CLOUDY    67  64  90 SE3       29.94S
MEDFORD        CLOUDY    68  66  95 E6        29.92R FOG
MERRILL        CLOUDY    67  66  97 E8        29.93S FOG
$$

WIZ029-030-035-036-043>047-220100-
CENTRAL WISCONSIN

CITY           SKY/WX    TMP DP  RH WIND       PRES   REMARKS
WAUSAU         CLOUDY    68  66  93 SE8       29.91R FOG
6HR MIN TEMP:  66; 6HR MAX TEMP:  69;

MOSINEE        CLOUDY    68  68 100 E9        29.93S FOG
MARSHFIELD     CLOUDY    76  70  82 SE7       29.90S
6HR MIN TEMP:  76; 6HR MAX TEMP:  80;

STEVENS POINT  CLOUDY    70  67  90 E7        29.91F
WAUPACA        MOCLDY    75  70  85 E8        29.92F
WAUTOMA        NOT AVBL
WISC RAPIDS    PTCLDY    76  69  79 SE5       29.91S
6HR MIN TEMP:  72; 6HR MAX TEMP:  80;

CAMP DOUGLAS   NOT AVBL
$$

WIZ011>013-019>022-031-037>040-048>050-220100-
NORTHEAST WISCONSIN

CITY           SKY/WX    TMP DP  RH WIND       PRES   REMARKS
ANTIGO         CLOUDY    64  64  99 E7        29.95F FOG
STURGEON BAY   CLOUDY    66  61  82 E5        29.96S
6HR MIN TEMP:  66; 6HR MAX TEMP:  68;

GREEN BAY      CLOUDY    69  65  86 E7        29.93F
6HR MIN TEMP:  68; 6HR MAX TEMP:  72; 6HR PCP:  0.02;

MANITOWOC      NOT AVBL
APPLETON       CLOUDY    72  64  78 VRB5      29.93F
CLINTONVILLE   CLOUDY    70  64  83 E5        29.93S
OSHKOSH        CLOUDY    72  69  90 E5        29.91F
6HR MIN TEMP:  70; 6HR MAX TEMP:  74; 6HR PCP:  0.01;

$$

WIZ032>034-041-042-053>061-220100-
SOUTHWEST WISCONSIN

CITY           SKY/WX    TMP DP  RH WIND       PRES   REMARKS
LA CROSSE      MOCLDY    82  72  71 S10       29.85S HX  87
6HR MIN TEMP:  79; 6HR MAX TEMP:  84;

SPARTA         PTCLDY    80  69  68 S7        29.88S HX  83
VIROQUA        FAIR      79  73  81 SW7       29.90S HX  82
BOSCOBEL       CLOUDY    79  72  79 SW6       29.89S HX  82
6HR MIN TEMP:  74; 6HR MAX TEMP:  85; 6HR PCP: TRACE;

PRAIRIE DU CHI CLOUDY    78  71  78 SE3       29.88S HX  80
PLATTEVILLE    CLOUDY    76  73  93 CALM      29.90R
$$

WIZ056-057-062-063-064-067-068-220100-
SOUTH CENTRAL WISCONSIN

CITY           SKY/WX    TMP DP  RH WIND       PRES   REMARKS
BARABOO/DELLS  CLOUDY    76  70  81 S3        29.91R
LONE ROCK      NOT AVBL
WATERTOWN      CLOUDY    75  73  92 SE5       29.90S
MADISON        MOCLDY    77  71  82 SE6       29.90S
6HR MIN TEMP:  72; 6HR MAX TEMP:  78; 6HR PCP: TRACE;

MIDDLETON      CLOUDY    79  74  86 S6        29.90S HX  82
MONROE         MOCLDY    75  72  88 S8        29.89F
JANESVILLE     CLEAR     79  73  83 S5        29.90R HX  82
$$

WIZ051-052-058>065-066-070>072-220100-
SOUTHEAST WISCONSIN

CITY           SKY/WX    TMP DP  RH WIND       PRES   REMARKS
MILWAUKEE      MOCLDY    74  69  85 SE6       29.92R
6HR MIN TEMP:  70; 6HR MAX TEMP:  77; 6HR PCP:  0.42;

WAUKESHA       MOCLDY    73  68  83 SE5       29.93S
MILWAUKEE/TIMM MOCLDY    75  68  78 E5        29.92S
RACINE         PTCLDY    73  69  87 S6        29.93S
6HR MIN TEMP:  71; 6HR MAX TEMP:  77; 6HR PCP:  0.15;

BURLINGTON     PTCLDY    74  71  91 SE3       29.91R
KENOSHA        PTCLDY    73  71  93 SE8       29.92S
6HR MIN TEMP:  72; 6HR MAX TEMP:  77; 6HR PCP:  0.16;

FOND DU LAC    MOCLDY    76  69  79 S5        29.91F
6HR MIN TEMP:  69; 6HR MAX TEMP:  79; 6HR PCP:  0.03;

SHEBOYGAN      CLOUDY    70  67  90 E6        29.93F FOG
6HR MIN TEMP:  66; 6HR MAX TEMP:  71; 6HR PCP:  0.17;

WEST BEND      CLOUDY    72  68  88 CALM      29.93S
JUNEAU         CLOUDY    75  46  35 E5        29.92S
$$

LSZ147-162-220100-
LAKE SUPERIOR

STATION/POSITION TIME  TEMP    WIND        PRES    WAVE
                       AIR SEA DIR/SP/G            HT/PER
                 (UTC) (F)     (DEG/KT/KT) (MB)    (FT/S)
W MID LAKE BUOY  2250   58 59   60/ 14/ 16 1012.9R   2/ 3
DEVILS ISLAND    2300   61      60/ 15/ 17 1012.7R
PORT WING        2300   64      40/ 17/ 19 1012.5
SAXON HARBOR     2300   66        CALM     1012.2R
$$

LMZ867-665-643>646-220100-
LAKE MICHIGAN

STATION/POSITION TIME  TEMP    WIND        PRES    WAVE
                       AIR SEA DIR/SP/G            HT/PER
                 (UTC) (F)     (DEG/KT/KT) (MB)    (FT/S)
N MID LAKE BUOY  2250   65 65   50/  8/ 10 1014.1F   0
NORTHPORT PIER   2300   65      90/  5/  8 1014.6S
SISTER BAY       2311   67     130/  6/ 10   N/A
ALGOMA LAKESHORE 2238           90/  7/  9   N/A
KEWAUNEE LAKESHO 2300   65      40/  3/  6 1013.3R
SHEBOYGAN LAKESH 2300   67 67  110/  3/  4 1013.9F
ATWATER BUOY     2300   69      70/  2/  2 1014.3S
MILWAUKEE LAKESH 2300   71     360/  3/  5   N/A
S MID LAKE BUOY  2250   69 69  140/  4/  6 1013.3F   1
KENOSHA   LAKESH 2300   72     180/  6/  8 1012.5F
$$

TC  - TEMPERATURE IN CELSIUS
VSB - VISIBILITY IN STATUTE MILES
WCI - WIND CHILL INDEX
HX  - HEAT INDEX




USA.gov is the U.S. government's official web portal to all federal, state and local government web resources and services.